Regional Weather Roundup
Issued by NWS

Home | Current Version | Previous Version | Text Only | Print | Product List | Glossary Off
Versions: 1 2 3 4 5 6 7 8 9 10 11 12 13 14 15 16 17 18 19 20 21 22 23 24 25 26 27 28 29 30 31 32 33 34 35 36 37 38 39 40 41 42 43 44 45 46 47 48 49 50

991
ASUS43 KOAX 210702
RWRNE

WEATHER ROUNDUP FOR NEBRASKA
NATIONAL WEATHER SERVICE OMAHA NE
200 AM CDT FRI JUL 21 2017

NOTES: SATELLITE DATA IS BEING USED TO AUGMENT CLOUD COVER ABOVE
       12000 FEET.
       "FAIR" INDICATES FEW OR NO CLOUDS BELOW 12,000 FEET WITH NO
       SIGNIFICANT WEATHER AND/OR OBSTRUCTIONS TO VISIBILITY.


NEZ001>004-019>022-054>056-210800-
NEBRASKA PANHANDLE

CITY           SKY/WX    TMP DP  RH WIND       PRES   REMARKS
SCOTTSBLUFF    CLOUDY    76  56  49 N22G28    30.03R
ALLIANCE       CLOUDY    73  65  75 S3        29.96F
CHADRON        MOCLDY    72  62  71 W10       29.96R
GORDON         FAIR      73  67  81 CALM      29.94S
KIMBALL        CLOUDY    73  53  49 NW18G26   30.08R
SIDNEY         CLOUDY    71  61  70 E3        30.00F
$$

NEZ057>060-069>072-079>082-210800-
SOUTHWEST NEBRASKA

CITY           SKY/WX    TMP DP  RH WIND       PRES   REMARKS
NORTH PLATTE   CLEAR     75  74  96 SE5       29.86F
IMPERIAL       PTCLDY    71  66  84 CALM      29.91S
LEXINGTON      CLEAR     78  63  58 S10       29.86F
MCCOOK         PTCLDY    80  60  50 SW8       29.87F
OGALLALA       PTCLDY    74  69  85 NE3       29.91F
$$

NEZ005>010-023>029-035>040-094-210800-
NORTH CENTRAL NEBRASKA

CITY           SKY/WX    TMP DP  RH WIND       PRES   REMARKS
VALENTINE      CLOUDY    77  69  76 NE3       29.88F
AINSWORTH      CLOUDY    75  75 100 SE5       29.89F THUNDER FOG
BROKEN BOW     CLEAR     77  72  84 SE5       29.87F
O`NEILL        CLOUDY    76  74  93 E7        29.87F
ORD            PTCLDY    77  72  84 SE6       29.85S
THEDFORD       PTCLDY    73  71  95 CALM      29.90F
$$

NEZ041-046>049-061>064-073>077-083>087-210800-
SOUTH CENTRAL NEBRASKA

CITY           SKY/WX    TMP DP  RH WIND       PRES   REMARKS
GRAND ISLAND   CLEAR     79  69  71 S14       29.88S
AURORA         CLEAR     80  68  67 S10       29.88F
HASTINGS       CLEAR     79  65  62 S8        29.90F
HEBRON         PTCLDY    82  66  58 S9        29.90S
HOLDREGE       CLEAR     76  62  60 S8        29.89S
KEARNEY        CLEAR     80  63  55 S13       29.88F
YORK           CLEAR     77  68  73 S9        29.89S
$$

NEZ011>018-030>034-042>045-210800-
NORTHEAST NEBRASKA

CITY           SKY/WX    TMP DP  RH WIND       PRES   REMARKS
NORFOLK        CLOUDY    77  72  84 SE8       29.86F
ALBION         PTCLDY    78  74  87 SE8       29.87F
BLAIR          CLOUDY    86  70  58 S10G17    29.91R HX  90
COLUMBUS       CLOUDY    83  69  62 S14       29.87F
FREMONT        CLOUDY    84  69  59 SE8       29.89S
TEKAMAH        CLOUDY    79  73  82 SE3       29.88S
WAYNE          CLOUDY    76  76  99 SE8       29.88F
$$

NEZ050>053-065>068-078-088>093-210800-
SOUTHEAST NEBRASKA

CITY           SKY/WX    TMP DP  RH WIND       PRES   REMARKS
LINCOLN        CLEAR     83  68  60 S12       29.88F
OMAHA EPPLEY   CLOUDY    88  72  58 S12       29.89R HX  94
BEATRICE       CLEAR     83  69  62 S10G16    29.90F
FALLS CITY     CLEAR     82  72  71 S8        29.91S
NEBRASKA CITY  CLEAR     81  75  80 SW12      29.91S
PLATTSMOUTH    CLOUDY    82  71  69 S12       29.90S
$$

NEZ044-045-051>053-067-210800-
OMAHA AREA

CITY           SKY/WX    TMP DP  RH WIND       PRES   REMARKS
OMAHA EPPLEY   CLOUDY    88  72  58 S12       29.89R HX  94
BLAIR          CLOUDY    86  70  58 S10G17    29.91R HX  90
FREMONT        CLOUDY    84  69  59 SE8       29.89S
MILLARD        CLOUDY    87  73  64 S6        29.89R HX  94
OFFUTT AFB     CLOUDY    84  72  67 S9        29.89S
PLATTSMOUTH    CLOUDY    82  71  69 S12       29.90S
WAHOO          FAIR      77  71  81 SE8       29.89R
$$




USA.gov is the U.S. government's official web portal to all federal, state and local government web resources and services.